SCP
0 0 0 0 0 0 0 0 0 0 1 1 2 2 2 2 2 3 4 6 8 6 4 2 2 3 5 5 3 2 2 2 2 1 1 1 1 1 1 1 1 1 1 1
0 0 0 0 0 0 0 0 0 1 1 1 2 2 2 2 2 3 4 6 7 5 3 3 3 3 5 5 3 3 2 2 2 1 1 1 1 1 1 1 1 1 2 2
0 0 0 0 0 0 0 0 0 1 1 1 2 2 2 2 2 2 4 5 5 3 3 3 3 3 4 4 4 3 3 2 2 2 2 2 1 1 1 1 1 2 2 2
0 0 0 0 0 0 0 0 1 1 1 1 1 1 1 2 2 2 3 3 3 2 2 3 3 3 4 4 4 3 3 3 3 3 3 2 2 2 2 2 2 2 2 3
0 0 0 0 0 0 0 1 1 1 0 1 1 1 1 2 2 2 2 2 2 2 2 3 3 3 4 4 4 4 5 5 5 4 4 3 2 2 3 3 2 2 2 2
0 0 0 0 0 0 0 1 0 0 0 0 0 1 1 2 2 2 2 2 2 2 2 3 3 4 4 5 5 6 7 8 6 5 4 3 2 2 3 2 2 1 1 1
0 0 0 0 0 0 1 0 0 0 0 0 0 0 1 1 2 2 2 2 2 3 3 3 4 4 6 6 6 7 9 9 7 5 4 3 2 2 2 2 2 1 1 1
0 0 0 0 0 0 0 0 0 0 0 0 0 0 1 2 3 3 2 2 3 5 5 4 4 5 6 6 6 6 7 7 5 4 4 3 2 2 2 2 2 1 1 1
0 0 0 0 0 0 0 0 0 0 0 0 0 1 3 4 4 3 2 3 4 5 6 5 4 5 5 5 5 5 5 4 4 4 4 3 3 2 2 2 2 2 1 1
0 0 0 0 0 0 0 0 0 0 0 0 0 1 3 6 5 3 3 3 4 5 5 5 4 4 4 4 4 3 3 3 3 4 4 4 3 3 2 2 2 2 1 1
0 0 0 0 0 0 0 0 0 0 0 0 0 1 2 4 4 3 3 4 4 4 4 4 3 3 3 3 3 3 3 3 4 4 4 4 3 3 2 2 2 2 2 2
0 0 0 0 0 0 0 0 0 0 0 0 0 1 1 2 3 3 4 5 5 4 3 3 3 3 4 4 4 4 4 4 5 5 4 4 3 3 3 3 3 2 2 3
0 0 0 0 0 0 0 0 0 0 0 0 0 1 2 3 4 4 5 5 5 4 4 4 4 5 5 5 4 4 4 5 6 6 5 4 4 4 4 4 4 4 3 3
0 0 0 0 0 0 0 0 0 0 0 0 0 1 3 5 5 5 5 5 5 4 5 5 5 5 5 4 4 3 4 6 7 6 5 5 4 4 5 5 4 3 3 2
0 0 0 0 0 0 0 0 0 0 0 0 1 2 4 5 6 6 6 5 5 6 6 6 6 6 5 4 4 4 5 6 7 6 5 5 4 4 4 4 3 2 2 2
0 0 0 0 0 0 0 0 0 0 1 1 2 2 4 6 7 7 7 6 6 7 7 8 8 7 6 5 5 6 6 6 6 5 4 5 5 4 3 2 2 2 2 3
0 0 0 0 0 0 0 0 1 1 1 2 4 5 6 8 8 8 8 8 8 8 9 9 9 9 8 6 6 6 6 5 4 4 3 4 5 5 4 3 3 3 3 4
0 0 0 0 0 0 0 1 1 2 2 4 7 8 8 8 8 9 10 9 9 10 10 10 10 10 9 7 6 5 5 4 3 3 3 4 6 7 7 5 4 4 4 4
0 0 0 0 0 0 1 1 2 3 3 5 8 9 8 8 9 10 10 11 12 11 11 10 10 10 9 7 6 5 5 4 3 3 3 4 5 8 9 8 6 5 5 5
0 0 0 0 0 1 1 2 2 3 4 6 8 9 9 9 10 11 12 13 13 12 10 10 11 10 9 8 6 6 5 4 4 4 3 3 5 8 10 10 9 8 7 7
0 0 0 0 1 1 2 3 3 3 4 6 10 11 11 11 13 14 14 15 14 12 11 10 11 11 9 8 7 6 5 5 5 4 4 4 5 8 10 10 11 11 11 10
0 0 0 1 2 2 3 3 3 3 5 8 12 15 16 17 17 16 15 15 14 12 11 11 12 11 9 8 7 6 6 5 6 6 5 5 6 8 9 10 11 13 13 13
2 2 3 3 4 4 4 5 6 8 11 13 15 17 20 22 20 17 15 14 12 11 10 11 12 12 9 8 7 6 6 7 8 7 7 7 7 8 8 8 9 12 14 15
5 6 5 5 5 5 5 7 11 16 19 19 18 18 20 21 21 18 15 12 10 10 10 12 13 12 11 9 8 7 7 9 10 10 9 8 7 7 7 7 7 10 12 14
6 6 6 5 4 4 5 8 14 19 22 21 20 18 18 18 18 17 16 13 11 10 12 14 15 15 13 10 8 8 8 9 10 10 9 8 7 6 6 5 5 6 8 9
4 5 5 5 4 4 5 8 13 18 19 20 20 18 16 15 15 16 17 15 12 11 14 16 17 16 14 10 9 8 9 9 9 9 8 7 6 6 5 4 3 3 4 4
Wind_Speed
2 3 2 6 5 7 5 3 3 4 3 4 5 6 9 10 10 10 9 9 10 10 9 9 10 10 9 8 7 7 6 5 4 2 2 1 1 0 0 1 1 2 1 1
4 4 8 4 3 3 3 4 3 3 2 3 4 3 7 9 13 13 13 12 11 9 8 9 9 9 9 9 8 8 7 6 5 3 2 2 2 1 1 0 0 1 1 1
6 8 4 3 3 1 1 4 5 4 3 4 5 2 3 5 6 8 11 11 11 13 12 11 10 10 9 9 9 9 8 6 5 4 2 1 1 1 1 1 0 1 1 1
6 7 4 3 5 4 4 5 5 5 5 0 3 2 7 5 5 8 10 10 11 12 11 11 11 11 11 10 9 8 8 7 5 5 4 3 2 2 2 1 1 1 1 1
6 4 4 6 7 5 5 4 2 4 4 2 1 3 7 2 6 9 10 12 12 12 13 13 13 12 11 10 9 8 7 6 5 5 5 4 3 2 1 1 1 0 1 1
7 5 4 7 6 5 3 5 7 6 5 1 4 4 6 6 10 9 9 11 11 12 13 12 10 9 8 8 8 8 7 6 5 5 5 5 4 3 2 1 1 0 1 2
5 6 4 3 1 1 5 7 5 5 4 4 3 3 8 9 9 10 11 11 11 11 11 10 10 10 9 9 9 8 8 6 5 5 5 4 4 4 3 2 2 1 0 1
3 7 5 3 6 5 4 10 9 6 4 4 1 4 8 7 6 5 7 8 9 10 10 11 12 11 10 10 10 9 8 7 6 6 5 4 4 3 2 2 2 1 1 0
6 7 6 5 5 9 5 4 8 8 3 0 3 4 6 3 2 5 6 7 9 10 11 11 11 10 10 10 9 10 9 7 6 6 5 4 3 3 3 2 2 1 0 1
6 4 6 5 1 2 7 7 6 6 5 2 2 3 4 3 3 4 7 9 8 9 9 10 9 9 9 8 8 8 8 7 6 6 5 4 3 3 3 3 2 2 1 2
5 3 6 2 4 6 3 3 5 5 6 7 3 6 7 8 7 7 7 8 9 9 10 10 9 9 8 7 8 8 7 6 6 5 4 4 3 3 3 3 2 2 2 2
4 5 3 6 6 6 6 6 7 5 3 4 5 7 6 7 7 8 8 8 8 9 9 9 9 9 8 8 8 7 7 7 6 6 5 5 4 4 4 3 2 3 3 2
4 6 1 6 7 3 1 3 5 6 5 4 4 6 3 3 4 6 7 7 8 8 8 8 8 9 9 8 8 8 7 7 6 6 6 5 4 4 4 3 3 3 3 3
7 5 7 8 7 4 3 3 3 6 4 4 6 6 3 4 5 5 7 7 8 9 9 9 8 8 8 8 8 7 7 7 7 6 6 5 5 4 4 3 3 3 3 3
7 4 3 4 4 2 3 5 3 4 8 8 8 8 9 10 10 9 9 8 9 10 10 11 10 8 8 8 8 8 7 7 7 7 6 5 5 5 4 3 3 3 3 4
5 4 1 1 2 2 3 5 4 3 4 6 5 5 7 6 6 8 10 11 10 11 11 10 10 9 9 10 9 8 8 7 7 7 6 6 5 5 4 4 4 4 4 4
3 4 3 2 3 3 4 5 4 3 3 7 8 9 6 6 9 11 11 11 11 11 11 10 10 9 9 9 10 9 8 7 7 7 7 6 6 6 5 5 5 4 4 4
5 4 3 1 2 4 10 4 3 3 2 3 4 6 8 9 9 7 9 10 10 10 10 10 9 9 7 7 8 8 8 8 7 6 6 6 6 6 5 5 5 4 4 4
6 7 4 3 2 5 8 4 2 3 2 1 4 5 6 7 6 2 3 7 10 10 10 10 10 9 9 9 9 9 8 7 7 6 5 5 6 6 6 6 5 4 4 4
4 6 6 4 3 5 7 6 2 6 1 3 4 7 7 7 6 4 5 7 7 8 8 9 9 9 10 9 9 9 8 7 7 6 6 5 6 6 6 6 5 4 4 4
3 3 4 4 3 7 7 6 3 5 6 3 3 6 7 5 6 6 7 7 8 9 8 9 10 9 8 9 10 9 7 6 6 5 5 6 5 5 6 5 5 5 5 5
4 3 4 4 3 7 6 3 3 6 4 3 4 4 5 5 6 7 7 7 9 9 8 8 8 7 7 8 9 9 7 5 5 6 6 6 5 5 5 5 5 5 6 5
4 7 5 6 7 6 3 1 2 4 5 3 3 4 6 7 6 7 7 7 8 8 8 7 8 8 6 6 8 9 7 7 7 6 6 6 5 4 5 6 6 5 5 4
3 0 2 1 2 4 4 3 2 2 4 4 5 6 6 6 6 7 7 6 7 7 7 7 8 8 7 6 6 7 7 8 8 7 6 6 6 5 4 4 4 4 4 5
3 2 2 0 3 5 6 4 2 2 4 5 5 5 6 7 6 6 6 6 8 7 6 7 7 8 7 6 6 6 7 8 8 7 6 6 5 5 4 3 2 3 3 5
2 1 2 3 4 2 4 4 2 3 3 4 6 5 4 5 5 5 5 5 7 7 6 7 7 7 6 6 6 5 6 8 8 7 6 5 5 4 4 4 3 6 3 2
Wind_Direction
337 71 239 235 204 189 179 164 229 235 188 120 141 160 180 177 167 171 174 177 180 185 181 171 170 169 162 159 160 160 155 166 160 148 154 160 191 208 168 172 175 178 185 185
14 268 239 225 221 181 159 159 210 258 186 136 144 164 190 187 184 182 181 182 182 182 175 175 173 170 169 171 170 165 163 172 174 171 172 167 165 173 169 173 194 211 209 200
208 241 226 191 230 237 235 178 186 176 61 56 99 6 236 216 195 190 187 182 179 181 180 180 179 180 173 176 176 175 174 175 179 171 144 120 77 48 43 35 294 278 228 222
239 249 237 212 226 194 248 220 182 151 110 213 133 194 260 217 208 199 194 187 186 185 181 182 184 183 182 186 180 174 175 176 176 163 154 155 155 168 192 200 223 286 258 238
249 232 218 216 220 190 221 216 164 127 117 98 26 145 266 210 215 210 197 192 188 186 184 185 187 185 185 180 175 174 170 172 170 163 165 160 160 168 162 148 114 341 324 309
254 263 217 213 211 182 165 61 37 46 72 65 227 164 257 221 211 210 202 197 190 188 186 186 183 172 171 170 169 168 167 172 169 163 161 161 160 154 140 128 124 354 323 314
297 291 267 209 152 344 103 90 42 8 13 251 240 170 243 235 213 197 194 196 189 185 179 176 171 169 170 168 170 168 166 169 166 162 163 166 164 156 155 157 154 149 307 329
222 273 257 208 170 179 177 139 152 177 212 270 301 219 256 250 213 182 176 180 177 178 178 177 176 173 171 170 170 166 166 167 165 166 168 165 158 153 157 157 155 167 191 250
194 249 272 241 185 152 156 178 164 136 153 153 285 285 319 1 109 141 159 161 172 176 174 173 171 170 170 168 170 167 163 162 163 164 158 155 154 151 149 146 138 136 122 91
177 241 279 267 104 151 161 157 102 117 143 191 273 257 229 231 189 162 166 170 168 167 163 164 164 168 170 169 162 153 156 161 160 160 163 155 151 148 140 125 116 101 81 67
173 195 292 328 185 196 143 118 114 123 149 151 190 259 223 199 190 180 185 174 162 163 162 161 164 163 157 149 146 147 150 148 149 151 144 137 133 131 123 116 112 105 83 77
180 141 245 261 250 196 169 169 142 142 198 155 156 255 241 198 188 175 177 170 160 159 156 155 155 149 146 146 146 148 148 147 150 146 136 134 126 120 118 114 104 94 85 75
149 122 96 334 337 346 162 172 148 133 123 143 153 251 264 180 161 162 152 148 149 147 142 140 140 145 150 151 151 151 150 149 143 137 134 131 127 125 125 119 105 95 90 79
116 120 161 194 215 225 249 250 159 124 146 183 201 213 239 182 169 160 147 151 153 144 146 147 148 152 155 153 153 151 148 145 142 137 136 138 138 134 127 119 109 101 95 85
98 130 181 211 230 211 236 253 238 182 181 181 210 199 211 197 177 168 162 160 155 149 154 156 155 157 156 152 151 147 145 146 146 141 141 145 137 127 121 115 110 98 94 92
69 118 100 309 315 311 279 269 253 228 186 178 171 219 222 193 159 157 163 160 158 158 161 158 156 158 158 155 153 150 149 148 143 145 148 146 137 132 129 125 115 100 88 82
69 103 91 275 319 30 276 243 222 223 205 172 193 215 184 162 172 173 169 159 159 163 159 156 158 160 160 157 153 152 150 144 142 145 149 148 144 142 143 137 121 114 105 94
130 105 121 122 60 219 243 243 187 182 244 187 180 185 171 168 176 169 164 159 161 160 157 156 156 156 155 148 142 139 135 138 142 144 148 152 150 148 141 131 128 121 114 108
144 134 123 123 169 271 290 285 162 141 301 255 148 143 136 138 104 78 170 162 159 163 162 158 158 153 145 142 141 134 133 136 139 144 149 152 152 149 146 143 140 137 125 113
88 112 124 138 161 221 251 282 262 102 328 290 148 148 144 130 132 208 192 161 143 143 147 148 145 139 138 141 138 133 139 143 153 156 154 151 150 150 152 152 145 138 129 126
60 71 138 164 199 253 262 293 57 119 218 238 160 151 150 159 180 179 160 150 139 135 137 142 140 140 144 142 137 139 144 158 160 148 141 139 142 145 147 142 137 134 130 125
161 157 182 156 183 251 293 8 136 199 196 157 129 130 130 129 125 128 130 133 129 128 127 130 132 132 135 140 140 143 155 161 146 137 134 137 139 141 137 136 134 136 137 134
184 183 179 181 209 244 292 180 202 151 128 130 128 120 121 122 128 127 127 132 135 134 132 133 135 132 134 143 148 151 162 155 145 137 137 139 135 130 137 142 144 143 146 147
297 324 130 133 294 311 342 16 27 94 129 128 125 119 112 120 133 133 135 136 137 135 138 138 140 141 149 155 157 160 157 152 146 146 144 142 139 135 133 137 146 152 159 158
271 332 54 35 309 351 351 353 3 69 95 104 104 107 124 127 136 141 141 145 146 146 148 143 148 150 154 153 155 158 154 149 147 149 148 145 143 144 135 121 124 157 170 176
254 173 146 229 247 212 283 311 353 80 95 113 111 98 97 120 134 137 142 147 145 143 141 141 147 148 150 152 156 159 159 154 151 153 154 154 151 146 140 130 89 49 73 124